RUZAEVKA 390 (RS44S)

Last updated on Thu Oct 30 2025 00:03:10 GMT+0000 (Coordinated Universal Time)

1 61766U 24199AH 25302.53901096 .00074027 00000+0 11760-2 0 9992 2 61766 97.3243 173.9717 0009045 36.2601 323.9263 15.53040256 98946
UTC large
Height (km)
Speed (km/s)
/
Latitude / Longitude
Inclination (degrees)
Orbital Period (minutes)
Azimuth
Elevation
Range (km)
Doppler Factor

Next 0 passes for location: London (51.5072 / 0.1276)

Sorry there are no passes over London.